FW2068 Weather Reports


time (UTC)temp
C
wind
direction
speed
KPH
gust
KPH
rain 1hr
cm
rain 24hr
cm
rain mn
cm
humidity
%
barometer
mb
20260506070305 16 1 8.0 9.7 0.00 0.00 0.00 78 1009.3
20260506062242 17 15 8.0 16.1 0.00 0.00 0.00 79 1009.0
20260506061737 17 319 4.8 6.4 0.00 0.00 0.00 79 1009.2
20260506061235 17 137 1.6 6.4 0.00 0.00 0.00 79 1009.4
20260506060734 17 59 0.0 6.4 0.00 0.00 0.00 79 1009.1
20260506060231 17 275 1.6 4.8 0.00 0.00 0.00 79 1009.2
20260506051202 19 325 9.7 9.7 0.00 0.00 0.00 78 1008.7
20260506050701 19 33 1.6 9.7 0.00 0.00 0.00 78 1009.0
20260506050157 19 328 4.8 14.5 0.00 0.00 0.00 77 1008.8
20260506044649 20 327 4.8 8.0 0.00 0.00 0.00 78 1008.5
20260506044145 20 337 6.4 9.7 0.00 0.00 0.00 78 1008.5
20260506043643 20 328 3.2 9.7 0.00 0.00 0.00 78 1008.5
20260506043140 20 349 6.4 6.4 0.00 0.00 0.00 77 1008.2
20260506042639 20 308 8.0 11.3 0.00 0.00 0.00 77 1008.2
20260506042137 21 310 4.8 11.3 0.00 0.00 0.00 77 1008.3
20260506041635 21 290 4.8 16.1 0.00 0.00 0.00 77 1008.2
20260506041131 21 301 4.8 11.3 0.00 0.00 0.00 77 1008.1
20260506040629 21 307 6.4 17.7 0.00 0.00 0.00 76 1008.3
20260506040126 21 301 6.4 17.7 0.00 0.00 0.00 77 1008.2
20260506035623 21 359 6.4 11.3 0.00 0.00 0.00 76 1008.1
20260506035119 21 317 9.7 14.5 0.00 0.00 0.00 77 1007.8
20260506034617 21 304 3.2 8.0 0.00 0.00 0.00 77 1007.8
20260506034113 22 316 6.4 12.9 0.00 0.00 0.00 76 1007.7
20260506033611 22 330 4.8 11.3 0.00 0.00 0.00 76 1008.0
20260506033108 22 333 9.7 9.7 0.00 0.00 0.00 76 1007.6
20260506032605 23 290 6.4 9.7 0.00 0.00 0.00 75 1007.7
20260506032102 23 327 8.0 16.1 0.00 0.00 0.00 75 1007.7
20260506031559 23 301 6.4 17.7 0.00 0.00 0.00 74 1007.6
20260506031056 23 291 3.2 12.9 0.00 0.00 0.00 74 1007.3
20260506030554 23 331 6.4 14.5 0.00 0.00 0.00 74 1007.1
20260506030051 23 314 6.4 11.3 0.00 0.00 0.00 75 1006.8
20260506025548 23 328 8.0 9.7 0.00 0.00 0.00 74 1006.9
20260506025044 23 308 8.0 9.7 0.00 0.00 0.00 75 1006.7
20260506024541 23 298 4.8 6.4 0.00 0.00 0.00 74 1006.2
20260506024038 23 328 1.6 9.7 0.00 0.00 0.00 74 1006.4
20260506023534 24 317 4.8 8.0 0.00 0.00 0.00 74 1006.2
20260506023032 24 301 8.0 11.3 0.00 0.00 0.00 73 1005.9
20260506022529 25 343 6.4 16.1 0.00 0.00 0.00 72 1005.9
20260506022026 26 288 8.0 8.0 0.00 0.00 0.00 77 1005.8
20260506021523 26 257 6.4 9.7 0.00 0.00 0.00 77 1005.9
20260506021021 26 148 3.2 4.8 0.00 0.00 0.00 77 1005.2
20260506020518 26 130 3.2 4.8 0.00 0.00 0.00 76 1005.6
20260506020016 26 265 6.4 8.0 0.00 0.00 0.00 76 1005.9
20260506015513 26 219 3.2 8.0 0.00 0.00 0.00 76 1005.7
20260506015009 26 261 3.2 9.7 0.00 0.00 0.00 76 1005.5
20260506014507 26 150 3.2 6.4 0.00 0.00 0.00 76 1005.3
20260506014003 26 221 3.2 6.4 0.00 0.00 0.00 76 1005.5
20260506013501 26 264 3.2 8.0 0.00 0.00 0.00 76 1005.6
20260506012957 26 179 3.2 6.4 0.00 0.00 0.00 76 1005.6
20260506012453 26 225 4.8 9.7 0.00 0.00 0.00 76 1005.2
20260506011951 26 219 6.4 12.9 0.00 0.00 0.00 77 1004.7
20260506011448 26 141 9.7 16.1 0.00 0.00 0.00 77 1004.4
20260506010944 26 174 4.8 8.0 0.00 0.00 0.00 76 1005.0
20260506010443 26 146 9.7 9.7 0.00 0.00 0.00 76 1005.0
20260506005939 26 184 6.4 11.3 0.00 0.00 0.00 76 1005.1
20260506005437 26 174 12.9 14.5 0.00 0.00 0.00 76 1005.0
20260506004932 26 168 8.0 12.9 0.00 0.00 0.00 76 1004.9
20260506004431 26 150 14.5 16.1 0.00 0.00 0.00 75 1004.7
20260506003926 26 150 11.3 14.5 0.00 0.00 0.00 75 1004.7
20260506003423 26 152 12.9 16.1 0.00 0.00 0.00 75 1004.7
20260506002919 27 153 9.7 14.5 0.00 0.00 0.00 75 1004.6
20260506002415 27 152 11.3 24.1 0.00 0.00 0.00 75 1004.6
20260506001911 27 150 16.1 20.9 0.00 0.00 0.00 74 1004.7
20260506001408 27 167 24.1 24.1 0.00 0.00 0.00 74 1004.4
20260506000905 27 150 16.1 24.1 0.00 0.00 0.00 74 1004.3
20260506000403 27 182 16.1 30.6 0.00 0.00 0.00 74 1004.3
20260505235859 27 151 20.9 25.7 0.00 0.00 0.00 74 1004.0
20260505235358 27 153 19.3 25.7 0.00 0.00 0.00 73 1004.1
20260505234854 27 159 14.5 19.3 0.00 0.00 0.00 72 1004.4
20260505234352 27 144 11.3 20.9 0.00 0.00 0.00 73 1004.5
20260505233848 27 177 16.1 20.9 0.00 0.00 0.00 72 1004.4
20260505233346 28 159 9.7 25.7 0.00 0.00 0.00 72 1004.2
20260505232843 28 191 9.7 19.3 0.00 0.00 0.00 71 1004.2
20260505232341 28 161 12.9 20.9 0.00 0.00 0.00 71 1004.2
20260505231837 28 165 11.3 16.1 0.00 0.00 0.00 70 1004.3
20260505231335 28 180 16.1 29.0 0.00 0.00 0.00 70 1004.2
20260505230833 28 165 14.5 30.6 0.00 0.00 0.00 70 1004.1
20260505230330 28 144 14.5 24.1 0.00 0.00 0.00 70 1003.7
20260505225827 28 166 16.1 20.9 0.00 0.00 0.00 69 1003.9
20260505225324 29 172 6.4 29.0 0.00 0.00 0.00 68 1004.0
20260505224819 29 163 16.1 29.0 0.00 0.00 0.00 69 1004.0
20260505224317 30 155 14.5 20.9 0.00 0.00 0.00 69 1003.7
20260505223814 29 162 14.5 27.4 0.00 0.00 0.00 69 1004.1
20260505223311 29 159 17.7 25.7 0.00 0.00 0.00 67 1004.0
20260505222807 30 150 14.5 20.9 0.00 0.00 0.00 67 1003.9
20260505222305 30 153 19.3 29.0 0.00 0.00 0.00 67 1003.8
20260505221800 30 173 14.5 20.9 0.00 0.00 0.00 67 1003.8
20260505221257 30 198 9.7 19.3 0.00 0.00 0.00 66 1003.8
20260505220754 29 183 9.7 24.1 0.00 0.00 0.00 67 1003.7
20260505220251 30 188 11.3 22.5 0.00 0.00 0.00 66 1003.7
20260505215749 30 158 14.5 25.7 0.00 0.00 0.00 68 1003.7
20260505215247 29 157 8.0 25.7 0.00 0.00 0.00 68 1003.8
20260505214744 29 177 9.7 24.1 0.00 0.00 0.00 67 1003.9
20260505214241 29 160 17.7 22.5 0.00 0.00 0.00 68 1003.8
20260505213738 29 164 9.7 20.9 0.00 0.00 0.00 67 1003.9
20260505213236 29 157 20.9 22.5 0.00 0.00 0.00 67 1004.1
20260505212732 28 164 14.5 24.1 0.00 0.00 0.00 68 1004.1
20260505212229 29 219 12.9 24.1 0.00 0.00 0.00 67 1004.2
20260505211726 30 169 11.3 27.4 0.00 0.00 0.00 66 1004.4
20260505211224 30 186 12.9 20.9 0.00 0.00 0.00 66 1004.2
20260505210720 29 183 11.3 25.7 0.00 0.00 0.00 67 1004.2
20260505210216 28 150 20.9 27.4 0.00 0.00 0.00 68 1004.3
20260505205714 30 145 16.1 24.1 0.00 0.00 0.00 66 1004.4
20260505205212 29 145 19.3 30.6 0.00 0.00 0.00 67 1004.5
20260505204708 29 169 9.7 19.3 0.00 0.00 0.00 67 1004.6
20260505204206 29 157 16.1 24.1 0.00 0.00 0.00 67 1004.6
20260505203704 29 144 27.4 30.6 0.00 0.00 0.00 67 1004.6
20260505203200 29 155 17.7 32.2 0.00 0.00 0.00 67 1004.6
20260505202656 29 206 8.0 22.5 0.00 0.00 0.00 66 1004.8
20260505202152 29 126 16.1 24.1 0.00 0.00 0.00 67 1004.6
20260505201648 29 196 9.7 19.3 0.00 0.00 0.00 67 1004.7
20260505201147 28 173 20.9 25.7 0.00 0.00 0.00 69 1004.7
20260505200645 28 172 14.5 27.4 0.00 0.00 0.00 69 1004.9
20260505200141 28 151 22.5 25.7 0.00 0.00 0.00 68 1004.9
20260505195637 28 162 22.5 30.6 0.00 0.00 0.00 68 1004.8
20260505195134 28 153 24.1 33.8 0.00 0.00 0.00 70 1004.9
20260505194632 28 165 14.5 27.4 0.00 0.00 0.00 69 1004.9
20260505194127 27 177 14.5 32.2 0.00 0.00 0.00 70 1004.7
20260505193624 27 167 19.3 30.6 0.00 0.00 0.00 70 1004.7
20260505193121 27 164 22.5 33.8 0.00 0.00 0.00 70 1004.7
20260505192620 28 143 14.5 22.5 0.00 0.00 0.00 69 1004.8
20260505192117 27 160 14.5 29.0 0.00 0.00 0.00 70 1004.9
20260505191616 27 170 19.3 33.8 0.00 0.00 0.00 71 1005.0
20260505191113 27 157 19.3 25.7 0.00 0.00 0.00 71 1004.9
20260505190608 27 205 19.3 32.2 0.00 0.00 0.00 70 1005.4
20260505190104 27 152 11.3 29.0 0.00 0.00 0.00 71 1005.2
20260505185601 27 161 17.7 33.8 0.00 0.00 0.00 71 1005.2
20260505185057 27 161 20.9 33.8 0.00 0.00 0.00 71 1005.2
20260505184554 27 169 12.9 27.4 0.00 0.00 0.00 70 1005.2
20260505184051 27 145 14.5 24.1 0.00 0.00 0.00 72 1005.5
20260505183547 27 151 17.7 32.2 0.00 0.00 0.00 72 1005.4
20260505183045 27 233 14.5 27.4 0.00 0.00 0.00 70 1005.6
20260505182541 27 200 14.5 19.3 0.00 0.00 0.00 70 1005.5
20260505182038 26 163 22.5 32.2 0.00 0.00 0.00 72 1005.4
20260505181535 26 180 11.3 24.1 0.00 0.00 0.00 73 1005.5
20260505181032 26 149 17.7 30.6 0.00 0.00 0.00 73 1005.5
20260505180527 26 228 8.0 25.7 0.00 0.00 0.00 72 1005.5
20260505180026 26 162 14.5 32.2 0.00 0.00 0.00 72 1005.4
20260505175526 26 150 20.9 33.8 0.00 0.00 0.00 73 1005.6
20260505175023 26 146 24.1 33.8 0.00 0.00 0.00 73 1005.6
20260505174520 26 165 17.7 24.1 0.00 0.00 0.00 72 1005.5
20260505174016 26 162 14.5 30.6 0.00 0.00 0.00 73 1005.4
20260505173513 26 169 24.1 33.8 0.00 0.00 0.00 73 1005.3
20260505173010 26 169 17.7 30.6 0.00 0.00 0.00 72 1005.5
20260505172508 26 155 22.5 32.2 0.00 0.00 0.00 73 1005.5
20260505172003 26 161 17.7 33.8 0.00 0.00 0.00 72 1005.3
20260505171459 26 160 22.5 32.2 0.00 0.00 0.00 73 1005.5
20260505170955 26 186 16.1 30.6 0.00 0.00 0.00 73 1005.3
20260505170452 26 148 22.5 37.0 0.00 0.00 0.00 73 1005.6
20260505165948 26 156 20.9 29.0 0.00 0.00 0.00 73 1005.6
20260505165444 26 189 17.7 30.6 0.00 0.00 0.00 73 1005.5
20260505164939 26 197 19.3 38.6 0.00 0.00 0.00 74 1005.6
20260505164436 25 175 30.6 35.4 0.00 0.00 0.00 74 1005.4
20260505163934 25 154 24.1 32.2 0.00 0.00 0.00 74 1005.5
20260505163433 25 174 25.7 33.8 0.00 0.00 0.00 75 1005.4
20260505162932 25 181 17.7 37.0 0.00 0.00 0.00 75 1005.6
20260505162427 25 154 17.7 33.8 0.00 0.00 0.00 75 1005.3
20260505161924 25 161 24.1 37.0 0.00 0.00 0.00 75 1005.4
20260505161421 25 163 17.7 35.4 0.00 0.00 0.00 75 1005.4
20260505160918 25 167 17.7 37.0 0.00 0.00 0.00 76 1005.4
20260505160416 25 162 20.9 41.8 0.00 0.00 0.00 77 1005.2
20260505153355 23 146 19.3 38.6 0.00 0.00 0.00 79 1005.6
20260505152852 23 145 16.1 27.4 0.00 0.00 0.00 78 1005.6
20260505152350 23 217 12.9 25.7 0.00 0.00 0.00 79 1005.6
20260505151849 23 145 17.7 33.8 0.00 0.00 0.00 80 1005.5
20260505151346 23 182 9.7 29.0 0.00 0.00 0.00 80 1005.5
20260505150843 23 151 29.0 30.6 0.00 0.00 0.00 80 1005.4
20260505150340 23 151 24.1 40.2 0.00 0.00 0.00 80 1005.5
20260505140304 22 174 17.7 29.0 0.00 0.00 0.00 83 1005.6
20260505130228 21 165 19.3 24.1 0.00 0.00 0.00 85 1005.2
20260505124718 21 137 16.1 20.9 0.00 0.00 0.00 85 1005.3
20260505124215 21 146 17.7 22.5 0.00 0.00 0.00 85 1004.9
20260505123711 21 160 16.1 24.1 0.00 0.00 0.00 85 1004.6
20260505123208 21 156 12.9 27.4 0.00 0.00 0.00 85 1004.7
20260505122704 21 176 16.1 24.1 0.00 0.00 0.00 85 1004.7
20260505122201 21 172 9.7 40.2 0.00 0.00 0.00 85 1004.8
20260505121658 21 147 16.1 27.4 0.00 0.00 0.00 85 1004.6
20260505121154 21 150 17.7 30.6 0.00 0.00 0.00 85 1004.7
20260505120651 21 163 14.5 30.6 0.00 0.00 0.00 85 1004.4
20260505120147 21 137 22.5 25.7 0.00 0.00 0.00 85 1004.6
20260505115641 21 159 17.7 32.2 0.00 0.00 0.00 85 1004.5
20260505115139 21 169 19.3 24.1 0.00 0.00 0.00 85 1004.6
20260505114636 21 161 19.3 27.4 0.00 0.00 0.00 85 1004.6
20260505114132 21 163 16.1 30.6 0.00 0.00 0.00 86 1004.7
20260505113628 21 162 12.9 27.4 0.00 0.00 0.00 86 1004.3
20260505113125 21 155 17.7 19.3 0.00 0.00 0.00 86 1004.4
20260505112621 21 137 25.7 30.6 0.00 0.00 0.00 86 1004.5
20260505112120 21 164 19.3 25.7 0.00 0.00 0.00 86 1004.7
20260505111619 21 167 17.7 24.1 0.00 0.00 0.00 86 1004.8
20260505111115 21 146 27.4 32.2 0.00 0.00 0.00 85 1004.5
20260505110612 21 152 17.7 22.5 0.00 0.00 0.00 85 1004.5
20260505110109 21 137 12.9 24.1 0.00 0.00 0.00 85 1004.5
20260505102044 21 163 12.9 27.4 0.00 0.00 0.00 85 1004.6
20260505101543 21 151 22.5 27.4 0.00 0.00 0.00 84 1004.6
20260505101039 21 163 17.7 24.1 0.00 0.00 0.00 84 1004.7
20260505100536 21 148 29.0 35.4 0.00 0.00 0.00 84 1004.6
20260505100033 21 168 12.9 27.4 0.00 0.00 0.00 84 1004.9
20260505095529 21 142 12.9 30.6 0.00 0.00 0.00 84 1004.9
20260505095025 21 194 9.7 22.5 0.00 0.00 0.00 84 1005.0
20260505094522 21 171 19.3 25.7 0.00 0.00 0.00 84 1005.1
20260505094018 21 160 20.9 24.1 0.00 0.00 0.00 84 1004.8
20260505093515 21 153 14.5 22.5 0.00 0.00 0.00 84 1005.0
20260505093012 21 178 14.5 24.1 0.00 0.00 0.00 84 1004.8
20260505092509 21 142 17.7 29.0 0.00 0.00 0.00 84 1005.1
20260505092008 21 165 11.3 29.0 0.00 0.00 0.00 84 1004.8
20260505091504 21 188 12.9 27.4 0.00 0.00 0.00 84 1004.7
20260505091002 21 190 14.5 25.7 0.00 0.00 0.00 84 1004.8
20260505090500 21 160 12.9 32.2 0.00 0.00 0.00 84 1004.6
20260505085957 21 147 24.1 27.4 0.00 0.00 0.00 84 1004.5
20260505085455 21 158 17.7 37.0 0.00 0.00 0.00 84 1004.6
20260505084953 21 173 17.7 32.2 0.00 0.00 0.00 84 1004.5
20260505084451 21 176 24.1 29.0 0.00 0.00 0.00 84 1004.9
20260505083949 21 139 9.7 32.2 0.00 0.00 0.00 84 1004.7
20260505083446 21 166 6.4 24.1 0.00 0.00 0.00 84 1004.9
20260505082942 21 155 19.3 27.4 0.00 0.00 0.00 84 1004.8
20260505082438 21 177 14.5 27.4 0.00 0.00 0.00 84 1005.0
20260505081935 21 166 19.3 33.8 0.00 0.00 0.00 84 1004.8
20260505081432 21 158 25.7 33.8 0.00 0.00 0.00 84 1005.0
20260505080928 21 152 17.7 24.1 0.00 0.00 0.00 84 1005.1
20260505080425 21 169 14.5 30.6 0.00 0.00 0.00 84 1005.1
20260505075920 21 151 14.5 30.6 0.00 0.00 0.00 84 1005.4
20260505075417 21 168 11.3 33.8 0.00 0.00 0.00 84 1005.2
20260505074915 21 135 19.3 30.6 0.00 0.00 0.00 84 1005.2
20260505074412 21 152 25.7 33.8 0.00 0.00 0.00 84 1005.4
20260505073909 21 170 12.9 24.1 0.00 0.00 0.00 84 1005.6
20260505073407 21 164 14.5 27.4 0.00 0.00 0.00 84 1005.5
20260505072904 21 152 14.5 27.4 0.00 0.00 0.00 84 1005.6
20260505072359 21 147 16.1 22.5 0.00 0.00 0.00 84 1005.7
20260505071856 21 170 11.3 30.6 0.00 0.00 0.00 84 1005.7
20260505071352 21 145 16.1 25.7 0.00 0.00 0.00 84 1005.8
20260505070850 21 153 9.7 30.6 0.00 0.00 0.00 83 1005.7